Regional Weather Roundup
Issued by NWS

Home | Current Version | Previous Version | Text Only | Print | Product List | Glossary Off
Versions: 1 2 3 4 5 6 7 8 9 10 11 12 13 14 15 16 17 18 19 20 21 22 23 24 25 26 27 28

000
ASUS45 KSLC 271710
RWRUT

UTAH REGIONAL WEATHER ROUNDUP
NATIONAL WEATHER SERVICE SALT LAKE CITY UT
1100 AM MDT SAT AUG 27 2016

UTZ001>011-023>025-271800-

NORTHERN UTAH

CITY           SKY/WX    TMP DP  RH WIND       PRES   REMARKS
BRIGHAM CITY     N/A     72  34  24 CALM      30.09S
HILL AFB       SUNNY     74  40  29 S12       30.11S
LOGAN          SUNNY     68  36  30 CALM      30.09F
OGDEN          SUNNY     77  40  26 S13G21    30.09R
PROVO AIRPORT  MOSUNNY   73  43  33 CALM      30.12F
SALT LAKE CITY MOSUNNY   79  40  24 S15       30.07S
VERNAL         SUNNY     63  47  55 VRB5      30.20F
WENDOVER       SUNNY     72  34  25 E8        30.08S
HEBER CITY     SUNNY     68  36  30 CALM      30.15F
WEST JORDAN    SUNNY     75  42  30 S18G24    30.10S

$$

UTZ012>022-026-027-271800-

SOUTHERN/CENTRAL UTAH

CITY           SKY/WX    TMP DP  RH WIND       PRES   REMARKS
BLANDING       CLOUDY    67  47  49 S5        30.30R
BRYCE CANYON   CLOUDY    51  45  79 E3        30.33R
CEDAR CITY     CLOUDY    61  48  62 SW7       30.20F
MILFORD        PTSUNNY   64  49  57 S18       30.17R
MOAB/CYNLANDS  MOSUNNY   74  44  34 E7        30.13F
PRICE          SUNNY     67  44  43 VRB3      30.22S
ST GEORGE      SUNNY     72  54  53 SE5       30.14F

$$

REGIONAL REPORTS     COLORADO/ARIZONA

CITY           SKY/WX    TMP DP  RH WIND       PRES   REMARKS
CRAIG, CO      SUNNY     66  41  40 VRB3      30.24F
GRAND JUNCTION SUNNY     69  45  41 S5        30.18F
RIFLE          SUNNY     63  50  62 NE3       30.23F
MONTROSE       PTSUNNY   67  46  47 E3        30.24F
CORTEZ         CLOUDY    67  46  47 CALM      30.22F
PAGE, AZ       CLOUDY    62  55  77 VRB3      30.19R
GRAND CANYON   CLOUDY    57  49  74 SE9       30.25F
KINGMAN        LGT RAIN  68  55  63 S8        30.11F
FLAGSTAFF      CLOUDY    50  49  96 S8        30.32F

$$

REGIONAL REPORTS    NEVADA/IDAHO/WYOMING

CITY           SKY/WX    TMP DP  RH WIND       PRES   REMARKS
LAS VEGAS, NV  PTSUNNY   77  50  38 N3        30.01S
ELY            SUNNY     69  38  32 CALM      30.20F
ELKO           SUNNY     68  21  16 CALM      30.13S
POCATELLO, ID  SUNNY     74  34  23 NW7       30.06S
BURLEY         SUNNY     71  44  37 CALM      30.02F
EVANSTON, WY   SUNNY     68  33  27 SW13G22   30.23S
ROCK SPRINGS   SUNNY     67  31  26 W16       30.22S

$$




USA.gov is the U.S. government's official web portal to all federal, state and local government web resources and services.